Hourly Data Report for July 15, 2019

TORONTO CITY
ONTARIO
Current Station Operator: ECCC - MSC

43°40'00.000" N
79°24'00.000" W
112.50 m
6158355
71508
XTO

Download Data

Hourly Data (July 2019)
Hourly Data Report for July 15, 2019
TIME
LST
Temp Definition
°C
Dew Point Definition
°C
Rel Hum Definition
%
Precip. Amount Definition
mm

Wind Dir Definition
10's deg

Wind Spd Definition
km/h
Visibility Definition
km
Stn Press Definition
kPa
Hmdx Definition


Wind Chill Definition


Weather Definition


00:00 19.3 11.5 61 0.0       100.52     LegendNANA
01:00 18.9 11.2 61 0.0       100.55     LegendNANA
02:00 18.7 11.3 62 0.0       100.56     LegendNANA
03:00 17.8 11.0 64 0.0       100.52     LegendNANA
04:00 17.3 11.0 66 0.0       100.52     LegendNANA
05:00 17.1 11.4 69 0.0       100.54     LegendNANA
06:00 17.5 11.8 69 0.0       100.62     LegendNANA
07:00 18.7 12.9 69 0.0       100.62     LegendNANA
08:00 21.5 12.3 56 0.0       100.67     LegendNANA
09:00 22.1 11.4 51 0.0       100.67     LegendNANA
10:00 23.0 12.9 53 0.0       100.69 26   LegendNANA
11:00 23.5 12.3 50 0.0       100.68 26   LegendNANA
12:00 23.7 13.3 52 0.0       100.63 27   LegendNANA
13:00 24.9 10.2 39 0.0       100.57 26   LegendNANA
14:00 26.2 13.6 46 0.0       100.50 29   LegendNANA
15:00 26.1 12.1 42 0.0       100.46 28   LegendNANA
16:00 26.1 10.7 38 0.0       100.39 28   LegendNANA
17:00 25.7 12.2 43 0.0       100.32 28   LegendNANA
18:00 24.5 14.8 55 0.0       100.30 28   LegendNANA
19:00 23.5 16.6 65 0.0       100.29 29   LegendNANA
20:00 23.3 16.7 66 0.0       100.28 28   LegendNANA
21:00 24.1 13.9 53 0.0       100.33 27   LegendNANA
22:00 23.8 12.1 48 0.0       100.27 26   LegendNANA
23:00 23.2 10.7 45 0.0       100.27 25   LegendNANA

Notes on Data Quality.

Legend

  • E = Estimated
  • M = Missing
  • NA = Not Available*
  • [empty] = Indicates an unobserved value
Date modified: